www.pogodaiklimat.ru

Погода и климат >> Архив погоды >> Гана >> Хо


ПОГОДА в Хо

  • Прогноз погоды в Хо
  • Монитор погоды в Хо

АРХИВ ПОГОДЫ в Хо

Время (UTC), дата Ветер
(напр.,м/с)
 
Видим.   Явления Облачность Т
(С)
Тd
(С)
f
(%)
Тe
(С)
Тes
(С)
Комфортность P
(гПа)
Po
(гПа)
Тmin
(С)
Tmax
(С)
R
(мм)
R24
(мм)
S
(см)
12 11.07 ЮЗ 2 14 км 6/6 360 м
[Cu Sc]
+29.3 +23.1 69 +39 +48 очень
душно
1014.0 996.1
18 11.07 СЗ 1 14 км 9/0
[Cs]
+27.0 +22.8 78 +36 +36 очень
душно
1012.7 994.6 +30.1
21 11.07 ЮЗ 1 14 км 9/9 360 м
[Sc]
+25.0 +23.6 92 +34 +34 очень
душно
1014.2 996.0
00 12.07 ЮЗ 1 14 км {дождь} 9/9 360 м
[Sc]
+24.5 +23.5 94 +33 +33 очень
душно
1013.8 995.6 9
03 12.07 ЮЗ 1 14 км 9/9 360 м
[Sc]
+23.9 +23.1 95 +32 +32 очень
душно
1013.5 995.2
06 12.07 ЮЗ 1 14 км 9/9 360 м
[Sc]
+23.5 +22.7 95 +31 +31 очень
душно
1014.4 996.1 +23.1 1
09 12.07 ЮЗ 1 14 км {дождь} 9/5 360 м
[Sc Ac trans]
+23.1 +19 +23 1016.2 997.8
12 12.07 ЮЗ 1 14 км {дождь} 9/3 360 м
[Cu Sc Ac trans]
+26.5 +22.1 77 +34 +43 очень
душно
1014.9 996.8
18 12.07 ЮВ 1 14 км 8/5 480 м
[Cu med, cong Ac trans]
+27.0 +23.1 79 +36 +36 очень
душно
1012.5 994.4 +28.3
03 13.07 штиль 0 14 км 8/8 360 м
[Sc]
+22.8 +22.1 96 +31 +31 очень
душно
1013.6 995.3
09 13.07 ЮЗ 1 14 км 9/8 360 м
[Sc Ac trans]
+24.6 +23.1 91 +33 +35 очень
душно
1016.6 998.3
12 13.07 ЮЗ 2 14 км 9/6 450 м
[Cu med, cong Ac trans]
+28.1 +23.3 75 +38 +43 очень
душно
1015.2 1015.0
12 14.07 СЗ 2 14 км {туман} 8/8 480 м
[Cu med, cong]
+29.6 +22.6 66 +39 +43 очень
душно
1013.9 996.0
15 14.07 СЗ 1 14 км 5/5 480 м
[Cu med, cong]
+31.9 +22.2 57 +41 +47 опасность
перегрева
1011.9 994.1
21 14.07 ЮВ 1 14 км 4/0
[Ac trans]
+25.2 +22.6 86 +33 +33 очень
душно
1001.3 983.3
00 15.07 штиль 0 14 км 8/4 360 м
[Sc Ac trans]
+24.0 +22.3 90 +31 +31 очень
душно
1012.9 994.7
03 15.07 штиль 0 14 км 9/5 360 м
[Sc Ac trans]
+23.6 +22.2 92 +31 +31 очень
душно
1012.2 993.9
06 15.07 штиль 0 14 км 9/5 360 м
[Sc Ac trans]
+23.3 +22.2 94 +32 +32 очень
душно
1012.7 994.4 +23.1
09 15.07 З 1 14 км 9/4 360 м
[Sc Ac trans]
+25.0 +22.3 85 +33 +37 очень
душно
1014.4 996.2
12 15.07 СВ 1 14 км гроза без осадков 9/6 480 м
[Cb cap Ac trans]
+25.0 +22.2 84 +32 +38 очень
душно
1013.5 995.3 4
15 15.07 СЗ 1 14 км {гроза} 8/5 480 м
[Cu med, cong Ac trans]
+27.9 +22.5 72 +37 +41 очень
душно
1010.1 992.1
18 15.07 З 1 14 км {гроза} 8/5 360 м
[Sc Ac trans]
+27.0 +22.6 77 +36 +36 очень
душно
1010.8 992.8 +28.0 4
21 15.07 ЮВ 1 14 км 8/5 360 м
[Sc Ac trans]
+25.0 +22.9 88 +33 +33 очень
душно
1012.3 994.1
00 16.07 ЮЗ 1 14 км 9/9 360 м
[Sc]
+23.6 +21.9 90 +30 +30 очень
душно
1013.3 995.0
03 16.07 ЮЗ 1 14 км 9/9 360 м
[Sc]
+24.0 +21.6 86 +31 +31 очень
душно
1011.4 993.2
06 16.07 СЗ 3 14 км 9/0 300 м
[Ac trans]
+24.5 +21.7 84 +31 +31 очень
душно
1012.6 994.4 +22.8 4
09 16.07 ЮЗ 2 14 км 6/3 480 м
[Cu med, cong Ac trans Ci sp]
+27.0 +22.3 75 +35 +41 очень
душно
1014.8 996.7
12 16.07 ЮЗ 2 14 км 8/4 480 м
[Cu med, cong Cs]
+30.2 +23.1 66 +40 +52 опасность
солнечного
удара
1013.4 995.5
15 16.07 ЮВ 2 14 км 8/8 540 м
[Cu med, cong]
+31.3 +23.2 62 +42 +44 опасность
перегрева
1011.1 993.3
18 16.07 ЮЗ 2 14 км 6/3 480 м
[Cu med, cong Ac trans Ci sp]
+27.4 +23.6 80 +37 +37 очень
душно
1011.7 993.7 +31.3
21 16.07 штиль 0 14 км 6/0
[Ci sp]
+24.8 +22.6 88 +33 +33 очень
душно
1014.4 996.2
00 17.07 ЮЗ 1 14 км 9/9 360 м
[Sc]
+24.0 +22.6 92 +31 +31 очень
душно
1014.8 996.5
06 17.07 штиль 0 14 км 8/4 360 м
[Sc Ac trans]
+23.9 +22.4 91 +31 +31 очень
душно
1014.6 996.3 +23.4
09 17.07 ЮВ 1 14 км 8/4 360 м
[Cu Sc Ac trans]
+27.0 +23.6 82 +37 +42 очень
душно
1016.2 998.1
12 17.07 ЮЗ 2 14 км 6/6 480 м
[Cu med, cong]
+29.4 +24.1 73 +41 +50 опасность
перегрева
1014.8 996.8
15 17.07 СЗ 2 14 км 4/3 480 м
[Cu med, cong Ac trans]
+31.9 +22.8 59 +42 +49 опасность
перегрева
1012.0 994.2
18 17.07 ЮЗ 2 14 км 5/4 360 м
[St Ac trans Ci sp]
+29.5 +23.0 68 +39 +39 очень
душно
1012.2 994.3 +31.9
21 17.07 Ю 2 14 км 3/0
[Ci sp]
+24.8 +22.3 86 +32 +32 очень
душно
1013.9 995.7
06 18.07 штиль 0 14 км 9/9 360 м
[Sc]
+23.0 +22.3 96 +31 +31 очень
душно
1013.9 995.6 +22.4

 

Местоположение метеостанции Хо (Гана): широта 6.60 долгота 0.47 высота над уровнем моря 158 м.

В архиве по умолчанию представлена погода в Хо за последнюю неделю. Архивные данные за месяц целиком и за предыдущие месяцы, начиная с января 2011 года, Вы можете получить, выбрав интересующий диапазон дат из раскрывающегося списка и нажав кнопку "Ввод!".


*Определитесь, кто Вы:
робот инопланетянин человек

Внимание! Время в таблицах - всемирное. Для получения местного времени необходимо прибавить поправку, которая равна 1 ч.

Смотрите также архив погоды в соседних городах и на ближайших метеорологических станциях:

Погода в Акатзи (Гана) (65 км)
Погода в Акюсе (Гана) (68 км)
Погода в Ада (Гана) (93 км)
Погода в Кофоридуа (Гана) (98 км)
Погода в Ломе (Того) (99 км)
Погода в Таблигбо (Того) (114 км)
Погода в Тема (Гана) (121 км)
Погода в Атакпаме (Того) (130 км)
Погода в Аккра (Гана) (132 км)
Погода в Абетифи (Гана) (135 км)

Пояснения к столбцам:

Ветер - указаны скорость ветра в м/с - средняя за 10 мин, порывы в срок и между сроками (в фигурных скобках) и направление, откуда дует ветер: С - северный, СВ - северо-восточный, В - восточный, ЮВ - юго-восточный, Ю - южный, ЮЗ - юго-западный, З - западный, СЗ - северо-западный.
Видимость - горизонтальная дальность видимости в метрах или километрах. При видимости от 1 до 10 км при отсутствии осадков обычно наблюдается дымка, при ухудшении видимости до 1 км и менее - туман. В сухую погоду видимость может ухудшаться дымом, пылью или мглою.
Явления - указаны атмосферные явления, наблюдавшиеся в срок или в последний час перед сроком; фигурными скобками обозначены явления, наблюдавшиеся между сроками (за 1-3 часа до срока); квадратными скобками обозначены град или гололедные отложения с указанием их диаметра в мм.
Облачность - указаны через наклонную черту общая и нижняя облачность в баллах и высота нижней границы облаков в метрах; квадратными скобками обозначены формы облаков: Ci - перистые, Cs - перисто-слоистые, Cc - перисто-кучевые, Ac - высококучевые, As - высокослоистые, Sc - слоисто-кучевые, Ns - слоисто-дождевые, Cu - кучевые, Cb - кучево-дождевые. Подробнее классификацию облаков см. в Атласе облаков (PDF).
T - Температура воздуха - температура, измеренная на высоте 2 м над землей.
Td - Температура точки росы - температура, при понижении до которой содержащийся в воздухе водяной пар достигнет насыщения.
f - Относительная влажность воздуха - влажноcть воздуха, измеренная на высоте 2 м над землей.
Te - Эффективная температура - температура, которую ощущает одетый по сезону человек в тени. Характеристика душности погоды. При расчете учитывается влияние влажности воздуха и скорости ветра на теплоощущения человека.
Tes - Эффективная температура на солнце - температура, которую ощущает человек, с поправкой на солнечный нагрев. Характеристика знойности погоды. Зависит от высоты солнца над горизонтом, облачности и скорости ветра. Ночью, в пасмурную погоду, а также при ветре 12 м/с и более поправка равна нулю.
P - Атмосферное давление - приведенное к уровню моря атмосферное давление.
Po - Атмосферное давление - измеренное на уровне метеостанции атмосферное давление.
Tmin - Минимальная температура - минимум температуры воздуха на высоте 2 м над землей.
Tmax - Максимальная температура - максимум температуры воздуха на высоте 2 м над землей.
R - Количество осадков - Количество выпавших осадков за период времени, мм. При наведении курсора мыши на число - период времени, за который выпало указанное количество осадков.
R24 - Количество осадков - Количество выпавших осадков за 24 часа, мм.
S - Снежный покров - Высота снежного покрова, см. При наведении курсора мыши на число - состояние снежного покрова и степень покрытия местности в баллах.